Location: Goettingen
(51.5300°N, 9.9433°E)
Time: 11:08:38
(UTC+01:00)

ISS - Pass Details

Date: 19 March 2023
Orbit: 414 x 423 km, 51.6° (Epoch: 20 March)

Event Time Altitude Azimuth Distance (km) Brightness Sun altitude
Rises 21:01:42 0° 258° (WSW) 2,354 0.7 -23.1°
Reaches altitude 10° 21:03:47 10° 258° (WSW) 1,491 -0.4 -23.4°
Enters shadow 21:05:42 32° 256° (WSW) 748 -2.2 -23.6°
